Regional Weather Roundup
Issued by NWS

Home | Current Version | Previous Version | Text Only | Print | Product List | Glossary On
Versions: 1 2 3 4 5 6 7 8 9 10 11 12 13 14 15 16 17 18 19 20 21 22 23 24 25 26 27 28 29 30 31 32 33 34 35 36 37 38 39 40 41 42 43 44 45 46 47 48 49 50
000
ASUS45 KTFX 251310
RWRMT
MONTANA REGIONAL WEATHER ROUNDUP
NATIONAL WEATHER SERVICE GREAT FALLS MT
700 AM MDT MON MAY 25 2015

NOTE: "FAIR" INDICATES FEW OR NO CLOUDS BELOW 12000 FEET WITH NO
SIGNIFICANT WEATHER AND/OR OBSTRUCTIONS TO VISIBILITY.

MTZ001>007-043-251400-
WEST OF THE DIVIDE

CITY           SKY/WX    TMP DP  RH WIND       PRES   REMARKS
KALISPELL      SUNNY     52  40  63 NE8       29.88S
MISSOULA       CLEAR     44  39  82 SW3       29.93S
BUTTE          SUNNY     36  34  92 S3        29.98S
MULLAN PASS    CLOUDY    46  37  71 S3        29.94R
DEER LODGE       N/A     39  37  93 CALM      30.00S
EUREKA           N/A     52  37  58 CALM      29.88S
HAMILTON         N/A     46  39  76 S3        29.93R
LIBBY            N/A     52  45  76 CALM      29.87S
RONAN            N/A     43  38  82 CALM      29.93S
$$

MTZ008-052>055-251400-
SOUTHWEST MONTANA

CITY           SKY/WX    TMP DP  RH WIND       PRES   REMARKS
BOZEMAN        MOSUNNY   42  40  92 E5        29.97R
DILLON         SUNNY     40  36  86 CALM      29.97S
W YELLOWSTONE  CLOUDY    39  39 100 CALM      29.99S
THREE FORKS      N/A     42  23  47 CALM      29.97R VSB 0
TWIN BRIDGES     N/A     38  33  82 E3        29.96F
$$

MTZ009-010-012-014-046-048-049-054-251400-
EAST SLOPES AND CENTRAL MONTANA

CITY           SKY/WX    TMP DP  RH WIND       PRES   REMARKS
CUT BANK       SUNNY     42  39  89 NW6       29.93S
GREAT FALLS    MOSUNNY   44  42  93 SW6       29.93S
MALMSTROM AFB  SUNNY     44  43  97 S3        29.94R
HELENA         SUNNY     46  41  82 CALM      29.95R
CONRAD           N/A     41  41 100 E2        29.95S
$$

MTZ011-013-016-021-045-047-050-051-251400-
NORTH CENTRAL MONTANA

CITY           SKY/WX    TMP DP  RH WIND       PRES   REMARKS
HAVRE          MOSUNNY   47  43  86 CALM      29.91S
LEWISTOWN      MOSUNNY   46  42  86 CALM      29.95R
N BAR RANCH    FAIR      50  43  76 CALM      29.96S
CHINOOK          N/A     46  41  81 CALM      29.92S
FORT BENTON      N/A     46  45  93 SW3       29.94R
$$

MTZ017>020-022>027-061-062-251400-
NORTHEAST MONTANA

CITY           SKY/WX    TMP DP  RH WIND       PRES   REMARKS
GLASGOW        SUNNY     54  45  71 CALM      29.89S
JORDAN           N/A     46  44  93 W3        29.90S
SIDNEY         PTSUNNY   52  46  82 CALM      29.89S
WOLF POINT     SUNNY     50  45  83 CALM      29.90S
MALTA            N/A     44  39  82 CALM      29.88S
POPLAR           N/A     52  46  82 CALM      29.90S
SCOBEY           N/A     44  36  73 E3        29.89S
$$

MTZ028>42-056>058-251400-
SOUTHCENTRAL AND SOUTHEAST MONTANA

CITY           SKY/WX    TMP DP  RH WIND       PRES   REMARKS
BAKER          CLOUDY    53  51  93 N3        29.89S
BILLINGS       PTSUNNY   52  46  80 W3        29.92S
LIVINGSTON     MOSUNNY   43  40  89 NW3       29.96S
MILES CITY     CLOUDY    52  50  93 W5        29.89F
BIG TIMBER       N/A     45  43  93 W7        29.96S
EKALAKA          N/A     50  48  92 N5        29.89R
FORSYTH          N/A     54  54 100 CALM      29.90S
LAUREL           N/A     49  43  80 CALM      29.92S
ROUNDUP          N/A     49  45  86 SW6       29.85R
$$

REGIONAL REPORTS...DAKOTAS

CITY           SKY/WX    TMP DP  RH WIND       PRES   REMARKS
WILLISTON      PTSUNNY   51  44  77 CALM      29.89S
MINOT          CLOUDY    55  48  77 SW5       29.86S
DICKINSON      CLOUDY    55  50  83 N7        29.86S
BEACH          CLOUDY    52  52 100 N5        29.90S
CROSBY         FAIR      52  52 100 CALM      29.90S
WATFORD CITY   PTSUNNY   50  48  93 CALM      29.87S
BISMARCK       LGT RAIN  56  55  97 N6        29.85S
GRAND FORKS    CLOUDY    58  53  84 W5        29.79S
FARGO          LGT RAIN  59  55  87 NE12      29.77F
BUFFALO SD       N/A     53  51  93 N13       29.79R
RAPID CITY     CLOUDY    53  50  89 N13       29.83S
$$

REGIONAL REPORTS...WYOMING/IDAHO/WASHINGTON

CITY           SKY/WX    TMP DP  RH WIND       PRES   REMARKS
GILLETTE       LGT RAIN  50  48  93 N8        29.89S FOG
SHERIDAN       CLOUDY    50  47  89 CALM      29.92S
BUFFALO WY     CLOUDY    47  44  90 NW5       29.93S
CODY           CLOUDY    48  43  81 CALM      29.95S
YELLOWSTONE LA   N/A     31  29  92 CALM      30.04S
IDAHO FALLS    FOG       45  45 100 W3        29.95R VSB<1/4
SALMON         CLOUDY    43  39  87 CALM      29.95S
BOISE          MOCLDY    55  46  71 SE9       29.88R
SPOKANE        CLOUDY    55  51  86 NE3       29.86R
$$

REGIONAL REPORTS...ALBERTA

CITY           SKY/WX    TMP DP  RH WIND       PRES   REMARKS
EDMONTON       SUNNY     52  39  62 SW3       29.86S
CALGARY        MOSUNNY   50  39  66 S3        29.90R
LETHBRIDGE     MOSUNNY   46  41  81 S6        29.90S
MEDICINE HAT   MOSUNNY   46  41  81 SW3       29.91R
$$

REGIONAL REPORTS...SASKATCHEWAN

CITY           SKY/WX    TMP DP  RH WIND       PRES   REMARKS
SWIFT CURRENT  MOSUNNY   59  39  47 VRB2      29.90S
REGINA         MOSUNNY   55  39  54 SW3       29.88S
SASKATOON      PTSUNNY   55  45  67 W6        29.89R
$$


USA.gov is the U.S. government's official web portal to all federal, state and local government web resources and services.